• In Uzbekistan
  • List of Countries
  • For 7 days
  • Water Temperature
  • Satellite Maps
  • Weather Map
  • Weather Widgets
  • user-avatar
    Login

    Hourly Weather Hrabniak

    Today, 17 July, Tuesday

    Time Temperature Precipitation Wind Pressure Humidity
    00:00 +18°C° 0.1 mm 2 mps 739 mmHg 95%
    01:00 +18°C° 0.1 mm 2 mps 738 mmHg 96%
    02:00 +18°C° 0 mm 2 mps 738 mmHg 97%
    03:00 +18°C° 0.8 mm 2 mps 738 mmHg 97%
    04:00 +18°C° 0.8 mm 2 mps 738 mmHg 97%
    05:00 +18°C° 0.8 mm 2 mps 737 mmHg 97%
    06:00 +19°C° 0.2 mm 2 mps 737 mmHg 95%
    07:00 +19°C° 0.2 mm 3 mps 737 mmHg 93%
    08:00 +20°C° 0 mm 3 mps 737 mmHg 89%
    09:00 +21°C° 0.3 mm 3 mps 737 mmHg 87%
    10:00 +22°C° 0.3 mm 3 mps 737 mmHg 84%
    11:00 +22°C° 0.3 mm 4 mps 737 mmHg 82%
    12:00 +23°C° 0.3 mm 4 mps 737 mmHg 80%
    13:00 +23°C° 0.3 mm 4 mps 736 mmHg 78%
    14:00 +23°C° 0.3 mm 4 mps 736 mmHg 76%
    15:00 +23°C° 0.5 mm 4 mps 736 mmHg 79%
    16:00 +23°C° 0.5 mm 4 mps 736 mmHg 81%
    17:00 +23°C° 0.5 mm 4 mps 736 mmHg 84%
    18:00 +24°C° 0.6 mm 3 mps 736 mmHg 87%
    19:00 +22°C° 0.6 mm 3 mps 736 mmHg 89%
    20:00 +21°C° 0.6 mm 3 mps 736 mmHg 92%
    21:00 +21°C° 0.4 mm 3 mps 736 mmHg 93%
    22:00 +20°C° 0.4 mm 3 mps 736 mmHg 94%
    23:00 +20°C° 0.4 mm 3 mps 736 mmHg 96%

    Tomorrow, 18 July, Wednesday

    Time Temperature Precipitation Wind Pressure Humidity
    00:00 +20°C° 0 mm 3 mps 736 mmHg 96%
    01:00 +19°C° 0 mm 2 mps 736 mmHg 96%
    02:00 +19°C° 0 mm 2 mps 736 mmHg 97%
    03:00 +19°C° 0 mm 2 mps 736 mmHg 97%
    04:00 +19°C° 0 mm 2 mps 736 mmHg 97%
    05:00 +19°C° 0 mm 2 mps 736 mmHg 97%
    06:00 +20°C° 0 mm 3 mps 736 mmHg 95%
    07:00 +21°C° 0 mm 3 mps 737 mmHg 93%
    08:00 +22°C° 0 mm 3 mps 737 mmHg 91%
    09:00 +24°C° 0.3 mm 3 mps 737 mmHg 86%
    10:00 +25°C° 0.3 mm 4 mps 737 mmHg 80%
    11:00 +27°C° 0.3 mm 4 mps 737 mmHg 75%
    12:00 +27°C° 0.6 mm 4 mps 737 mmHg 74%
    13:00 +28°C° 0.6 mm 4 mps 737 mmHg 72%
    14:00 +28°C° 0.6 mm 3 mps 737 mmHg 71%
    15:00 +28°C° 0.6 mm 3 mps 737 mmHg 72%
    16:00 +28°C° 0.6 mm 3 mps 737 mmHg 72%
    17:00 +28°C° 0.6 mm 3 mps 737 mmHg 72%
    18:00 +27°C° 0.4 mm 3 mps 737 mmHg 77%
    19:00 +26°C° 0.4 mm 3 mps 737 mmHg 82%
    20:00 +24°C° 0.4 mm 3 mps 737 mmHg 87%
    21:00 +22°C° 0 mm 3 mps 737 mmHg 89%
    22:00 +21°C° 0 mm 3 mps 737 mmHg 91%
    23:00 +20°C° 0 mm 3 mps 738 mmHg 94%

    Day after tomorrow, 19 July, Thursday

    Time Temperature Precipitation Wind Pressure Humidity
    00:00 +20°C° 0 mm 3 mps 738 mmHg 94%
    01:00 +19°C° 0 mm 3 mps 738 mmHg 95%
    02:00 +19°C° 0 mm 3 mps 738 mmHg 96%
    03:00 +19°C° 0 mm 3 mps 738 mmHg 96%
    04:00 +18°C° 0 mm 3 mps 738 mmHg 97%
    05:00 +18°C° 0 mm 3 mps 738 mmHg 97%
    06:00 +19°C° 0 mm 3 mps 739 mmHg 93%
    07:00 +20°C° 0 mm 4 mps 739 mmHg 88%
    08:00 +21°C° 0 mm 4 mps 739 mmHg 84%
    09:00 +23°C° 0 mm 4 mps 739 mmHg 76%
    10:00 +25°C° 0 mm 5 mps 739 mmHg 69%
    11:00 +27°C° 0 mm 5 mps 739 mmHg 61%
    12:00 +27°C° 0.3 mm 5 mps 739 mmHg 61%
    13:00 +27°C° 0.3 mm 6 mps 739 mmHg 62%
    14:00 +27°C° 0.3 mm 6 mps 739 mmHg 62%
    15:00 +27°C° 0.3 mm 6 mps 739 mmHg 64%
    16:00 +27°C° 0.3 mm 5 mps 739 mmHg 66%
    17:00 +27°C° 0.3 mm 5 mps 739 mmHg 67%
    18:00 +26°C° 0.3 mm 5 mps 739 mmHg 73%
    19:00 +23°C° 0.3 mm 4 mps 739 mmHg 79%
    20:00 +22°C° 0.3 mm 4 mps 739 mmHg 84%
    21:00 +21°C° 0.1 mm 4 mps 739 mmHg 87%
    22:00 +20°C° 0.1 mm 4 mps 739 mmHg 89%
    23:00 +20°C° 0.1 mm 4 mps 740 mmHg 91%

    20 July, Friday

    Time Temperature Precipitation Wind Pressure Humidity
    00:00 +19°C° 0 mm 4 mps 740 mmHg 93%
    01:00 +19°C° 0 mm 3 mps 739 mmHg 94%
    02:00 +18°C° 0 mm 3 mps 739 mmHg 95%
    03:00 +18°C° 0 mm 3 mps 740 mmHg 96%
    04:00 +18°C° 0 mm 3 mps 740 mmHg 96%
    05:00 +17°C° 0 mm 3 mps 740 mmHg 96%
    06:00 +19°C° 0 mm 4 mps 740 mmHg 92%
    07:00 +20°C° 0 mm 4 mps 740 mmHg 88%
    08:00 +21°C° 0 mm 5 mps 740 mmHg 85%
    09:00 +22°C° 0.1 mm 5 mps 740 mmHg 80%
    10:00 +23°C° 0.1 mm 5 mps 740 mmHg 75%
    11:00 +26°C° 0.1 mm 5 mps 740 mmHg 70%
    12:00 +26°C° 0.6 mm 5 mps 739 mmHg 70%
    13:00 +27°C° 0.6 mm 6 mps 739 mmHg 70%
    14:00 +27°C° 0.6 mm 6 mps 739 mmHg 69%
    15:00 +27°C° 0.4 mm 6 mps 739 mmHg 71%
    16:00 +27°C° 0.4 mm 6 mps 739 mmHg 72%
    17:00 +26°C° 0.4 mm 6 mps 739 mmHg 74%
    18:00 +24°C° 0.3 mm 6 mps 739 mmHg 78%
    19:00 +23°C° 0.3 mm 5 mps 739 mmHg 82%
    20:00 +22°C° 0.3 mm 4 mps 739 mmHg 86%
    21:00 +21°C° 0 mm 4 mps 739 mmHg 87%
    22:00 +20°C° 0 mm 4 mps 739 mmHg 89%
    23:00 +20°C° 0 mm 4 mps 739 mmHg 90%

    21 July, Saturday

    Time Temperature Precipitation Wind Pressure Humidity
    00:00 +19°C° 0 mm 4 mps 739 mmHg 91%
    01:00 +18°C° 0 mm 4 mps 739 mmHg 92%
    02:00 +17°C° 0 mm 4 mps 739 mmHg 94%
    03:00 +17°C° 0 mm 4 mps 739 mmHg 94%
    04:00 +17°C° 0 mm 4 mps 739 mmHg 95%
    05:00 +15°C° 0 mm 4 mps 739 mmHg 95%
    06:00 +17°C° 0 mm 4 mps 739 mmHg 92%
    07:00 +19°C° 0 mm 4 mps 739 mmHg 88%
    08:00 +20°C° 0 mm 4 mps 739 mmHg 84%
    09:00 +22°C° 0 mm 4 mps 739 mmHg 79%
    10:00 +23°C° 0 mm 5 mps 739 mmHg 74%
    11:00 +26°C° 0 mm 5 mps 739 mmHg 69%
    12:00 +26°C° 1 mm 5 mps 739 mmHg 69%
    13:00 +27°C° 1 mm 5 mps 739 mmHg 69%
    14:00 +27°C° 1 mm 5 mps 738 mmHg 69%
    15:00 +27°C° 0.7 mm 5 mps 738 mmHg 70%
    16:00 +27°C° 0.7 mm 5 mps 738 mmHg 71%
    17:00 +26°C° 0.7 mm 5 mps 738 mmHg 71%
    18:00 +25°C° 0.2 mm 5 mps 738 mmHg 76%
    19:00 +23°C° 0.2 mm 4 mps 738 mmHg 81%
    20:00 +22°C° 0.2 mm 3 mps 738 mmHg 85%
    21:00 +21°C° 0 mm 3 mps 738 mmHg 87%
    22:00 +20°C° 0 mm 3 mps 739 mmHg 89%
    23:00 +19°C° 0 mm 3 mps 739 mmHg 91%

    22 July, Sunday

    Time Temperature Precipitation Wind Pressure Humidity
    00:00 +18°C° 0 mm 3 mps 739 mmHg 92%
    01:00 +17°C° 0 mm 3 mps 739 mmHg 93%
    02:00 +16°C° 0 mm 3 mps 739 mmHg 94%
    03:00 +16°C° 0 mm 3 mps 739 mmHg 94%
    04:00 +16°C° 0 mm 3 mps 739 mmHg 94%
    05:00 +14°C° 0 mm 3 mps 739 mmHg 95%
    06:00 +17°C° 0 mm 3 mps 739 mmHg 89%
    07:00 +18°C° 0 mm 4 mps 739 mmHg 84%
    08:00 +19°C° 0 mm 4 mps 740 mmHg 78%
    09:00 +21°C° 0 mm 4 mps 740 mmHg 72%
    10:00 +23°C° 0 mm 4 mps 740 mmHg 65%
    11:00 +25°C° 0 mm 4 mps 740 mmHg 59%
    12:00 +26°C° 0 mm 4 mps 740 mmHg 57%
    13:00 +27°C° 0 mm 5 mps 740 mmHg 54%
    14:00 +27°C° 0 mm 5 mps 740 mmHg 52%
    15:00 +27°C° 0 mm 5 mps 740 mmHg 54%
    16:00 +27°C° 0 mm 5 mps 740 mmHg 56%
    17:00 +26°C° 0 mm 5 mps 740 mmHg 58%
    18:00 +25°C° 0 mm 5 mps 740 mmHg 64%
    19:00 +22°C° 0 mm 4 mps 740 mmHg 69%
    20:00 +21°C° 0 mm 4 mps 740 mmHg 75%
    21:00 +19°C° 0 mm 3 mps 741 mmHg 78%
    22:00 +18°C° 0 mm 3 mps 741 mmHg 82%
    23:00 +17°C° 0 mm 3 mps 741 mmHg 85%
    Show more